[[{"header":{"parameterUnit":"m.s-1","parameterCategory":1,"la1":30.2991,"la2":30.254,"lo1":-89.0895,"lo2":-89.0444,"dy":0.0017,"dx":0.0017,"nx":28,"ny":28,"refTime":"2024-07-09T21:00:00:Z","depth":0,"parameterNumber":2,"parameterNumberName":"U-component_of_WINDS"},"data":[0,0,0,0,0,0,0,0,0,0,0,0,0,0,0,0,0,0,0,0,0,0,0,0,0,0,0,0,0,0,0,0,0,0,0,0,0,0,0,0,0,0,0,0,0,0,0,0,0,0,0,0,0,0,0,0,0,0,2.2223,2.2223,0,2.225,2.2251,2.2251,2.2163,2.216,2.2158,2.2155,2.2184,2.2187,2.219,0,0,0,0,0,0,0,0,0,0,0,0,0,2.2092,2.2095,2.2223,2.2223,2.2223,2.225,2.2251,2.2251,2.2164,2.216,2.2157,2.2154,2.2183,2.2187,2.219,0,0,0,0,0,0,0,0,0,0,0,0,0,2.2137,2.2096,2.2223,2.2183,2.218,2.225,2.2251,2.2251,2.2164,2.216,2.2156,2.2152,2.2181,2.2186,2.2191,2.2301,0,0,2.2206,2.2208,0,0,0,0,0,0,0,0,2.2135,2.2142,2.2188,2.2186,2.2182,2.2199,2.2215,2.2268,2.2165,2.217,2.2155,2.2151,2.2192,2.2196,2.221,2.2303,2.2304,2.2206,2.2209,2.2211,2.2213,0,0,0,0,0,0,0,2.2132,2.214,2.2234,2.2189,2.2185,2.2163,2.2165,2.2225,2.2203,2.2169,2.2163,2.2168,2.219,2.2205,2.221,2.2304,2.2206,2.2211,2.2214,2.2215,2.2486,2.249,0,0,0,0,0,0,2.2134,2.2138,2.2233,2.2234,2.2148,2.2169,2.2171,2.2198,2.2202,2.2199,2.2171,2.2163,2.2199,2.2204,2.2211,2.2338,2.2211,2.2216,2.2219,2.2482,2.2487,2.2492,0,0,0,0,0,0,2.2131,2.2143,2.2232,2.2185,2.2194,2.2175,2.2206,2.22,2.2216,2.2204,2.2199,2.2191,2.2196,2.2204,2.2279,2.2338,2.2218,2.2223,2.2477,2.2484,2.249,2.2595,0,0,0,0,0,0,2.2128,2.2143,2.2185,2.2186,2.2197,2.23,2.221,2.2204,2.2225,2.2215,2.2221,2.2218,2.2194,2.2272,2.2284,2.2342,2.2226,2.2472,2.248,2.2488,2.2587,2.2605,2.262,0,0,0,0,0,2.2124,2.2214,2.2188,2.22,2.225,2.2304,2.231,2.2279,2.223,2.2272,2.2263,2.2218,2.233,2.2281,2.2293,2.2354,2.2468,2.2478,2.2487,2.2579,2.2601,2.262,0,0,0,0,0,0,2.2221,2.2214,2.2184,2.2278,2.2292,2.2289,2.2341,2.2304,2.2333,2.2322,2.2283,2.2285,2.2367,2.2368,2.2313,2.246,2.239,2.2403,2.2456,2.2477,2.2493,2.2491,2.223,0,0,0,0,0,2.2253,2.2298,2.2289,2.2373,2.2382,2.236,2.2383,2.2358,2.2371,2.2376,2.2374,2.2388,2.2425,2.2451,2.2486,2.2587,2.2586,2.2635,2.2651,2.2665,2.2676,2.2727,2.2748,2.2523,2.2523,2.2523,0,0,2.2321,2.2322,2.2353,2.2393,2.24,2.2447,2.2366,2.2419,2.2453,2.2384,2.2454,2.2453,2.2466,2.2554,2.2593,2.2557,2.2738,2.2678,2.2689,2.2692,2.2739,2.276,2.2779,2.253,2.2529,2.2528,0,0,2.2466,2.2473,2.2542,2.2552,2.2564,2.2549,2.2566,2.2568,2.2564,2.2634,2.2583,2.2623,2.269,2.27,2.2714,2.2863,2.2822,2.2875,2.2962,2.3013,2.303,2.3046,2.3097,2.3116,2.2886,2.2887,2.2887,0,2.2548,2.2617,2.2583,2.2639,2.2657,2.2597,2.2665,2.2676,2.27,2.2713,2.2674,2.2755,2.276,2.2848,2.2884,2.2898,2.2915,2.2874,2.3031,2.3046,2.306,2.3108,2.3127,2.2893,2.2892,2.2892,2.2891,0,2.2716,2.2764,2.2818,2.2841,2.2866,2.2928,2.2903,2.2931,2.2904,2.2893,2.2964,2.2967,2.3,2.302,2.2994,2.3104,2.3082,2.3037,2.2966,2.3088,2.3132,2.3151,2.2902,2.29,2.2898,2.2896,0,0,2.2924,2.2926,2.2947,2.2956,2.2965,2.3001,2.306,2.3092,2.3116,2.3135,2.3182,2.3239,2.3197,2.3214,2.3189,2.3233,2.3348,2.3183,2.3182,2.3212,2.3467,2.3499,2.3521,2.3321,2.3325,2.3327,2.3465,0,2.3066,2.3166,2.3136,2.3237,2.328,2.3223,2.3274,2.3285,2.3276,2.3311,2.33,2.3341,2.3284,2.3293,2.3334,2.3325,2.3398,2.3315,2.3364,2.3366,2.336,2.3544,2.3579,2.3709,2.3482,2.3485,2.3487,0,2.3245,2.3269,2.3374,2.3374,2.339,2.3437,2.3463,2.3497,2.3508,2.3498,2.3515,2.3481,2.3537,2.3467,2.3544,2.3488,2.3506,2.3505,2.3509,2.3511,2.3433,2.355,2.375,2.3768,2.3515,2.3513,2.3511,0,2.3383,2.3442,2.3512,2.3522,2.3524,2.3558,2.356,2.3567,2.3587,2.361,2.3622,2.3652,2.3667,2.369,2.3664,2.3616,2.3744,2.3672,2.3737,2.3737,2.3765,2.3764,2.3969,2.378,2.378,2.3779,2.3779,0,2.3544,2.361,2.3574,2.3617,2.3688,2.3653,2.3725,2.3721,2.3727,2.3767,2.3721,2.3759,2.3723,2.3759,2.3739,2.3804,2.3812,2.3805,2.3798,2.3808,2.3809,2.3818,2.3808,2.3785,2.3783,2.3782,2.3782,0,2.371,2.3689,2.3761,2.3757,2.3757,2.381,2.3806,2.3845,2.3832,2.3884,2.3894,2.3874,2.3913,2.3889,2.393,2.3916,2.4001,2.3983,2.3997,2.3992,2.4056,2.405,2.4274,2.4301,2.4096,2.4098,2.41,0,2.3813,2.3862,2.3863,2.3886,2.3892,2.3931,2.3951,2.3918,2.3941,2.3955,2.3992,2.4027,2.4053,2.4118,2.4107,2.4137,2.4118,2.4194,2.4122,2.413,2.4117,2.4114,2.4117,2.4209,2.4211,2.4213,2.4215,0,2.3997,2.3984,2.4015,2.4042,2.4067,2.4087,2.4103,2.4125,2.4092,2.412,2.4159,2.4179,2.4219,2.4254,2.4279,2.428,2.4242,2.4237,2.4253,2.4263,2.4268,2.4264,2.4035,2.4232,2.423,2.4229,2.4228,2.4227,2.4134,2.4174,2.418,2.4216,2.4224,2.424,2.4275,2.4267,2.4298,2.4328,2.4307,2.4353,2.436,2.4389,2.4396,2.4431,2.44,2.4424,2.4429,2.4435,2.4443,2.4264,2.4436,2.4435,2.4435,2.4434,2.4434,0,2.4313,2.4314,2.4348,2.4371,2.4398,2.436,2.4375,2.44,2.4441,2.4451,2.4478,2.4522,2.4555,2.4546,2.4575,2.4605,2.4587,2.4613,2.461,2.4611,2.447,2.4453,2.4626,2.4626,2.4626,2.4626,2.4626,2.4626,2.441,2.4475,2.4463,2.4531,2.4532,2.4576,2.4587,2.4601,2.4609,2.466,2.4687,2.4681,2.4683,2.4712,2.474,2.4736,2.4749,2.4781,2.4771,2.464,2.4621,2.4602,2.4585,2.4784,2.4784,2.4907,2.4909,2.4909]},{"header":{"parameterUnit":"m.s-1","parameterCategory":1,"la1":30.2991,"la2":30.254,"lo1":-89.0895,"lo2":-89.0444,"dy":0.0017,"dx":0.0017,"nx":28,"ny":28,"refTime":"2024-07-09T21:00:00:Z","depth":0,"parameterNumber":3,"parameterNumberName":"V-component_of_WINDS"},"data":[0,0,0,0,0,0,0,0,0,0,0,0,0,0,0,0,0,0,0,0,0,0,0,0,0,0,0,0,0,0,0,0,0,0,0,0,0,0,0,0,0,0,0,0,0,0,0,0,0,0,0,0,0,0,0,0,0,0,2.3679,2.3679,0,2.3711,2.3711,2.3711,2.3666,2.3664,2.3663,2.3661,2.3694,2.3696,2.3699,0,0,0,0,0,0,0,0,0,0,0,0,0,2.3577,2.3579,2.3679,2.3679,2.3679,2.3711,2.3711,2.3711,2.3666,2.3664,2.3662,2.3661,2.3693,2.3696,2.3699,0,0,0,0,0,0,0,0,0,0,0,0,0,2.3617,2.358,2.3679,2.3661,2.3659,2.371,2.3711,2.3712,2.3667,2.3664,2.3662,2.366,2.3692,2.3696,2.3699,2.3769,0,0,2.371,2.3712,0,0,0,0,0,0,0,0,2.3614,2.362,2.3663,2.3662,2.3661,2.3682,2.3687,2.3731,2.3667,2.3664,2.3661,2.3659,2.3692,2.3695,2.3707,2.3771,2.3772,2.371,2.3713,2.3714,2.3715,0,0,0,0,0,0,0,2.3612,2.3619,2.3691,2.3664,2.3662,2.3651,2.3654,2.3695,2.3691,2.3664,2.3661,2.3665,2.3691,2.3703,2.3707,2.3773,2.371,2.3713,2.3716,2.3717,2.3894,2.3897,0,0,0,0,0,0,2.3611,2.3617,2.369,2.3692,2.3631,2.3654,2.3658,2.3678,2.369,2.369,2.3667,2.3663,2.3698,2.3703,2.3708,2.379,2.3714,2.3717,2.3719,2.3892,2.3895,2.3897,0,0,0,0,0,0,2.3609,2.3618,2.3689,2.3654,2.3662,2.3659,2.3681,2.3679,2.3692,2.3693,2.3692,2.3681,2.3697,2.3703,2.3754,2.379,2.3719,2.3722,2.3889,2.3893,2.3896,2.3955,0,0,0,0,0,0,2.3607,2.3618,2.3645,2.3655,2.3664,2.3735,2.3684,2.3682,2.3698,2.3693,2.3705,2.3705,2.3695,2.3749,2.3758,2.3794,2.3725,2.3885,2.389,2.3895,2.3949,2.396,2.3969,0,0,0,0,0,2.3603,2.366,2.3646,2.3656,2.3698,2.3737,2.3742,2.373,2.3701,2.3728,2.3728,2.3705,2.3785,2.3755,2.3764,2.3802,2.3883,2.3889,2.3895,2.3945,2.3958,2.3969,0,0,0,0,0,0,2.3656,2.3661,2.3646,2.3708,2.3723,2.373,2.3763,2.3744,2.3767,2.3761,2.3745,2.3748,2.3802,2.3807,2.3773,2.3869,2.3829,2.3837,2.3864,2.3876,2.3886,2.3884,2.3728,0,0,0,0,0,2.3674,2.3706,2.371,2.3764,2.3772,2.3766,2.3783,2.3772,2.3786,2.3792,2.3796,2.3811,2.3839,2.3858,2.3884,2.395,2.3951,2.398,2.399,2.3998,2.4005,2.4039,2.4051,2.3917,2.3916,2.3916,0,0,2.3713,2.3721,2.3742,2.3775,2.3785,2.3817,2.3772,2.3809,2.3833,2.3798,2.3846,2.3849,2.3864,2.3923,2.3948,2.3928,2.4042,2.4006,2.4012,2.4014,2.4046,2.4059,2.407,2.392,2.392,2.3919,0,0,2.3801,2.3811,2.3856,2.3867,2.3882,2.3877,2.3888,2.3898,2.3899,2.3947,2.392,2.3949,2.3998,2.4009,2.4021,2.4112,2.4091,2.4121,2.4172,2.4205,2.4216,2.4225,2.4256,2.4268,2.4128,2.4128,2.4128,0,2.3848,2.3897,2.3882,2.3921,2.3935,2.3904,2.395,2.3961,2.3984,2.3995,2.3972,2.4032,2.404,2.41,2.4121,2.4133,2.4144,2.4119,2.4215,2.4224,2.4233,2.4262,2.4274,2.4132,2.4131,2.4131,2.4131,0,2.3953,2.3987,2.4022,2.4044,2.4063,2.4105,2.4096,2.4117,2.4104,2.4101,2.415,2.4158,2.4185,2.4198,2.4186,2.4256,2.4243,2.4218,2.4177,2.425,2.4277,2.4288,2.4137,2.4135,2.4134,2.4133,0,0,2.4076,2.4088,2.4101,2.411,2.4124,2.415,2.419,2.4215,2.4233,2.4249,2.4282,2.4324,2.43,2.4314,2.4303,2.4332,2.4402,2.4303,2.4304,2.4321,2.4477,2.4496,2.4509,2.4388,2.439,2.4391,2.4476,0,2.4162,2.4231,2.4219,2.4286,2.4316,2.4287,2.4321,2.4333,2.4332,2.4357,2.4356,2.4385,2.4353,2.4361,2.4388,2.4388,2.4433,2.4381,2.4417,2.4418,2.4414,2.4523,2.4543,2.4622,2.4487,2.4488,2.449,0,2.4273,2.4293,2.4363,2.4371,2.4383,2.4414,2.4436,2.4461,2.4473,2.447,2.4485,2.4468,2.4507,2.4466,2.4518,2.4483,2.4497,2.4499,2.4502,2.4504,2.4458,2.4528,2.4647,2.4659,2.4507,2.4505,2.4504,0,2.4354,2.4399,2.4446,2.4455,2.4465,2.4487,2.4493,2.4502,2.4518,2.4537,2.4547,2.457,2.4583,2.4601,2.4591,2.4562,2.4645,2.4603,2.4643,2.4643,2.4661,2.466,2.4784,2.4672,2.4671,2.4671,2.4671,0,2.4452,2.4496,2.4482,2.4511,2.4559,2.4543,2.4591,2.4592,2.4601,2.463,2.4606,2.4633,2.4617,2.4643,2.4635,2.4679,2.4685,2.4683,2.4681,2.4685,2.4685,2.4694,2.4688,2.4674,2.4674,2.4673,2.4672,0,2.4551,2.4544,2.4593,2.4598,2.46,2.4635,2.4639,2.4666,2.4662,2.4698,2.4706,2.47,2.4729,2.472,2.4751,2.4746,2.4802,2.4792,2.4797,2.4795,2.4835,2.4831,2.4967,2.4984,2.4862,2.4863,2.4864,0,2.4614,2.4647,2.4655,2.4672,2.4679,2.4707,2.4722,2.4708,2.4725,2.4741,2.4765,2.4792,2.4812,2.4859,2.4858,2.4881,2.4872,2.4918,2.4875,2.4878,2.4871,2.4869,2.4872,2.4926,2.4928,2.4929,2.493,0,2.4726,2.472,2.4743,2.4765,2.4784,2.4801,2.4816,2.4831,2.4817,2.4838,2.4866,2.4882,2.4913,2.494,2.4961,2.4965,2.4945,2.4943,2.4954,2.4958,2.496,2.4958,2.482,2.494,2.4939,2.4938,2.4938,2.4937,2.4808,2.4835,2.4844,2.4871,2.488,2.4894,2.4918,2.4918,2.4941,2.4965,2.4955,2.4988,2.4998,2.5024,2.5032,2.5057,2.5039,2.5054,2.5058,2.5062,2.5066,2.4956,2.5061,2.5061,2.506,2.506,2.506,0,2.4917,2.4921,2.4946,2.4966,2.4987,2.4966,2.498,2.4999,2.5028,2.5039,2.5059,2.5092,2.5117,2.5117,2.514,2.516,2.5151,2.5167,2.5165,2.5166,2.5081,2.507,2.5173,2.5173,2.5173,2.5173,2.5173,2.5173,2.4977,2.5021,2.5016,2.5064,2.5068,2.51,2.511,2.5122,2.5131,2.5168,2.5188,2.5188,2.5195,2.5218,2.5239,2.5239,2.5248,2.5267,2.5262,2.5183,2.5172,2.5161,2.515,2.5269,2.5269,2.5345,2.5345,2.5346]}]]